Location: Croydon
(51.3762°N, 0.0982°W)
Time: 06:16:28
(UTC+00:00)

Altair - Pass Details

Date: 19 November 2019
Orbit: 1502 x 1682 km, 47.2° (Epoch: 14 December)

Event Time Altitude Azimuth Distance (km) Brightness Sun altitude
Rises 08:07:28 0° 282° (WNW) 4,647 9.5 4.7°
Reaches altitude 10° 08:10:34 10° 278° (W) 3,674 9.0 5.1°
Maximum altitude 08:19:18 49° 207° (SSW) 1,915 8.3 6.1°
Drops below altitude 10° 08:28:17 10° 137° (SE) 3,775 12.9 7.1°
Sets 08:31:32 0° 132° (SE) 4,783 12.7 7.5°
